,,Stat5,,Stat1,,Stat2,,Stat3,,Stat4,,Wind1,,Wind1,
time,status,PA1M_AVG,status,PR1M_SUM,status,RH1M_AVG,status,SR1M_AVG,status,TA1M_AVG,status,W1dAve1m,status,W1sAve1m,
2001-06-15, 00:00:00,VALID,919.216,VALID,0,VALID,96.3482,VALID,-0.0679233,VALID,20.3731,VALID,359,VALID,0.768446,
2001-06-15, 00:01:00,VALID,919.216,VALID,0,VALID,96.4156,VALID,-0.101885,VALID,20.3729,VALID,34,VALID,0.666385,
2001-06-15, 00:02:00,VALID,919.207,VALID,0,VALID,96.4627,VALID,-0.101885,VALID,20.3821,VALID,282,VALID,0.436022,
2001-06-15, 00:03:00,VALID,919.201,VALID,0,VALID,96.4194,VALID,-0.0849042,VALID,20.3893,VALID,95,VALID,0.531851,
2001-06-15, 00:04:00,VALID,919.168,VALID,0,VALID,96.4003,VALID,-0.101885,VALID,20.389,VALID,358,VALID,0.596284,
2001-06-15, 00:05:00,VALID,919.163,VALID,0,VALID,96.3291,VALID,-0.0849042,VALID,20.3828,VALID,5,VALID,0.373047,
2001-06-15, 00:06:00,VALID,919.16,VALID,0,VALID,96.3368,VALID,-0.0849042,VALID,20.353,VALID,12,VALID,0.207317,
2001-06-15, 00:07:00,VALID,919.14,VALID,0,VALID,96.3787,VALID,-0.101885,VALID,20.357,VALID,16,VALID,1.06414,
2001-06-15, 00:08:00,VALID,919.131,VALID,0,VALID,96.5288,VALID,-0.0679233,VALID,20.3565,VALID,20,VALID,0.798109,
2001-06-15, 00:09:00,VALID,919.112,VALID,0,VALID,96.5339,VALID,-0.0849042,VALID,20.3699,VALID,18,VALID,0.545703,
2001-06-15, 00:10:00,VALID,919.114,VALID,0,VALID,96.469,VALID,-0.101885,VALID,20.3893,VALID,24,VALID,1.23931,
2001-06-15, 00:11:00,VALID,919.112,VALID,0,VALID,96.2655,VALID,0,VALID,20.3719,VALID,26,VALID,1.53228,
2001-06-15, 00:12:00,VALID,919.11,VALID,0,VALID,96.1155,VALID,0.0169808,VALID,20.3423,VALID,349,VALID,1.34882,
2001-06-15, 00:13:00,VALID,919.108,VALID,0,VALID,96.174,VALID,0.0169808,VALID,20.3097,VALID,27,VALID,1.56684,
2001-06-15, 00:14:00,VALID,919.102,VALID,0,VALID,96.2668,VALID,0.0169808,VALID,20.3164,VALID,24,VALID,1.3138,
2001-06-15, 00:15:00,VALID,919.086,VALID,0,VALID,96.2554,VALID,0.0169808,VALID,20.3199,VALID,27,VALID,1.39615,
2001-06-15, 00:16:00,VALID,919.061,VALID,0,VALID,96.1943,VALID,0.0509425,VALID,20.3296,VALID,20,VALID,1.03864,
2001-06-15, 00:17:00,VALID,919.044,VALID,0,VALID,96.2045,VALID,0.0169808,VALID,20.3095,VALID,19,VALID,0.960732,
2001-06-15, 00:18:00,VALID,919.004,VALID,0,VALID,96.249,VALID,0.0169808,VALID,20.3132,VALID,28,VALID,1.30119,
2001-06-15, 00:19:00,VALID,918.986,VALID,0,VALID,96.2567,VALID,0.0169808,VALID,20.3164,VALID,16,VALID,0.988758,
2001-06-15, 00:20:00,VALID,918.98,VALID,0,VALID,96.2045,VALID,0.0169808,VALID,20.3003,VALID,10,VALID,0.489515,
2001-06-15, 00:21:00,VALID,918.959,VALID,0,VALID,96.2376,VALID,0.0169808,VALID,20.3005,VALID,27,VALID,0.731291,
2001-06-15, 00:22:00,VALID,918.946,VALID,0,VALID,96.2477,VALID,0,VALID,20.2868,VALID,24,VALID,0.561198,
2001-06-15, 00:23:00,VALID,918.935,VALID,0,VALID,96.4143,VALID,0.0169808,VALID,20.3067,VALID,26,VALID,0.736909,
2001-06-15, 00:24:00,VALID,918.92,VALID,0,VALID,96.3978,VALID,0.0169808,VALID,20.3132,VALID,24,VALID,0.874554,
2001-06-15, 00:25:00,VALID,918.903,VALID,0,VALID,96.4181,VALID,0,VALID,20.31,VALID,26,VALID,0.899671,
2001-06-15, 00:26:00,VALID,918.882,VALID,0,VALID,96.3024,VALID,0.0169808,VALID,20.2938,VALID,6,VALID,0.623522,
2001-06-15, 00:27:00,VALID,918.873,VALID,0,VALID,96.3711,VALID,0,VALID,20.2642,VALID,24,VALID,1.21752,
2001-06-15, 00:28:00,VALID,918.851,VALID,0,VALID,96.4131,VALID,0.0339617,VALID,20.2545,VALID,24,VALID,1.22065,
2001-06-15, 00:29:00,VALID,918.85,VALID,0,VALID,96.4003,VALID,0.0169808,VALID,20.2225,VALID,19,VALID,0.862305,
2001-06-15, 00:30:00,VALID,918.857,VALID,0,VALID,96.4092,VALID,0.0679233,VALID,20.2066,VALID,18,VALID,0.889391,
2001-06-15, 00:31:00,VALID,918.874,VALID,0,VALID,96.4652,VALID,0,VALID,20.1748,VALID,20,VALID,0.537109,
2001-06-15, 00:32:00,VALID,918.887,VALID,0,VALID,96.5567,VALID,0,VALID,20.1619,VALID,16,VALID,0.885346,
2001-06-15, 00:33:00,VALID,918.882,VALID,0,VALID,96.6445,VALID,0,VALID,20.1221,VALID,22,VALID,0.863598,
2001-06-15, 00:34:00,VALID,918.871,VALID,0,VALID,96.75,VALID,0.0169808,VALID,20.1326,VALID,18,VALID,0.980928,
2001-06-15, 00:35:00,VALID,918.872,VALID,0,VALID,96.7869,VALID,0.0339617,VALID,20.1328,VALID,20,VALID,0.764844,
2001-06-15, 00:36:00,VALID,918.853,VALID,0,VALID,96.7246,VALID,0.0169808,VALID,20.0997,VALID,7,VALID,0.88101,
2001-06-15, 00:37:00,VALID,918.839,VALID,0,VALID,96.7233,VALID,0,VALID,20.0774,VALID,2,VALID,0.755757,
2001-06-15, 00:38:00,VALID,918.834,VALID,0,VALID,96.6445,VALID,-0.0169808,VALID,20.058,VALID,351,VALID,1.37808,
2001-06-15, 00:39:00,VALID,918.828,VALID,0,VALID,96.6127,VALID,0,VALID,20.0163,VALID,352,VALID,1.28945,
2001-06-15, 00:40:00,VALID,918.827,VALID,0,VALID,96.7678,VALID,0,VALID,19.9942,VALID,360,VALID,1.22985,
2001-06-15, 00:41:00,VALID,918.831,VALID,0,VALID,96.9192,VALID,0.0169808,VALID,19.9812,VALID,11,VALID,1.34498,
2001-06-15, 00:42:00,VALID,918.822,VALID,0,VALID,96.9802,VALID,0,VALID,19.9643,VALID,14,VALID,1.42504,
2001-06-15, 00:43:00,VALID,918.804,VALID,0,VALID,96.9624,VALID,0,VALID,19.9382,VALID,2,VALID,1.43077,
2001-06-15, 00:44:00,VALID,918.794,VALID,0,VALID,97.0527,VALID,0,VALID,19.9263,VALID,354,VALID,1.17246,
2001-06-15, 00:45:00,VALID,918.768,VALID,0,VALID,97.1239,VALID,0.0169808,VALID,19.933,VALID,5,VALID,1.14272,
2001-06-15, 00:46:00,VALID,918.743,VALID,0,VALID,97.1531,VALID,0.0169808,VALID,19.9169,VALID,323,VALID,0.850507,
2001-06-15, 00:47:00,VALID,918.706,VALID,0,VALID,97.2256,VALID,0,VALID,19.9035,VALID,16,VALID,0.745066,
2001-06-15, 00:48:00,VALID,918.676,VALID,0,VALID,97.2104,VALID,0.0169808,VALID,19.9032,VALID,317,VALID,0.875206,
2001-06-15, 00:49:00,VALID,918.643,VALID,0,VALID,97.2282,VALID,0,VALID,19.8876,VALID,310,VALID,0.809832,
2001-06-15, 00:50:00,VALID,918.615,VALID,0,VALID,97.1506,VALID,-0.0339617,VALID,19.862,VALID,347,VALID,0.736431,
2001-06-15, 00:51:00,VALID,918.6,VALID,0,VALID,97.1658,VALID,0,VALID,19.8587,VALID,325,VALID,0.35588,
2001-06-15, 00:52:00,VALID,918.601,VALID,0,VALID,97.0476,VALID,0,VALID,19.8391,VALID,345,VALID,0.726345,
2001-06-15, 00:53:00,VALID,918.587,VALID,0,VALID,96.8836,VALID,0,VALID,19.8297,VALID,359,VALID,0.775338,
2001-06-15, 00:54:00,VALID,918.598,VALID,0,VALID,96.8047,VALID,0,VALID,19.8418,VALID,8,VALID,0.471429,
2001-06-15, 00:55:00,VALID,918.6,VALID,0,VALID,96.6979,VALID,0,VALID,19.862,VALID,351,VALID,0.056949,
2001-06-15, 00:56:00,VALID,918.609,VALID,0,VALID,96.6508,VALID,0,VALID,19.8679,VALID,356,VALID,0.165118,
2001-06-15, 00:57:00,VALID,918.606,VALID,0,VALID,96.6343,VALID,0,VALID,19.891,VALID,3,VALID,0.171669,
2001-06-15, 00:58:00,VALID,918.607,VALID,0,VALID,96.5987,VALID,0,VALID,19.8973,VALID,3,VALID,0.129012,
2001-06-15, 00:59:00,VALID,918.618,VALID,0,VALID,96.6051,VALID,0,VALID,19.9137,VALID,7,VALID,0.333203,
2001-06-15, 01:00:00,VALID,918.623,VALID,0,VALID,96.6381,VALID,0.0339617,VALID,19.9231,VALID,7,VALID,0.235609,
2001-06-15, 01:01:00,VALID,918.63,VALID,0,VALID,96.7043,VALID,0,VALID,19.9169,VALID,7,VALID,0.266493,
2001-06-15, 01:02:00,VALID,918.639,VALID,0,VALID,96.7767,VALID,0,VALID,19.9134,VALID,21,VALID,0.694257,
2001-06-15, 01:03:00,VALID,918.648,VALID,0,VALID,96.867,VALID,0,VALID,19.9201,VALID,21,VALID,0.730997,
2001-06-15, 01:04:00,VALID,918.653,VALID,0,VALID,96.9153,VALID,0,VALID,19.9298,VALID,20,VALID,0.628217,
2001-06-15, 01:05:00,VALID,918.628,VALID,0,VALID,96.9064,VALID,0.0339617,VALID,19.933,VALID,29,VALID,0.389648,
2001-06-15, 01:06:00,VALID,918.608,VALID,0,VALID,96.9204,VALID,0.0169808,VALID,19.9328,VALID,29,VALID,0.305889,
2001-06-15, 01:07:00,VALID,918.577,VALID,0,VALID,97.0234,VALID,0,VALID,19.9365,VALID,29,VALID,0.0943668,
2001-06-15, 01:08:00,VALID,918.556,VALID,0,VALID,97.0323,VALID,0,VALID,19.9296,VALID,29,VALID,0.000616776,
2001-06-15, 01:09:00,VALID,918.538,VALID,0,VALID,97.0807,VALID,0,VALID,19.9427,VALID,29,VALID,0.0367187,
2001-06-15, 01:10:00,VALID,918.527,VALID,0,VALID,97.073,VALID,0,VALID,19.946,VALID,29,VALID,0.140214,
2001-06-15, 01:11:00,VALID,918.515,VALID,0,VALID,97.0565,VALID,0,VALID,19.9462,VALID,29,VALID,0,
2001-06-15, 01:12:00,VALID,918.526,VALID,0,VALID,97.0361,VALID,0.0169808,VALID,19.933,VALID,26,VALID,0.175042,
2001-06-15, 01:13:00,VALID,918.526,VALID,0,VALID,97.0145,VALID,0,VALID,19.9236,VALID,28,VALID,0.586155,
2001-06-15, 01:14:00,VALID,918.525,VALID,0,VALID,96.9789,VALID,0.0339617,VALID,19.9169,VALID,27,VALID,0.740885,
2001-06-15, 01:15:00,VALID,918.515,VALID,0,VALID,96.9675,VALID,0,VALID,19.8846,VALID,17,VALID,0.808117,
2001-06-15, 01:16:00,VALID,918.516,VALID,0,VALID,97.0082,VALID,0,VALID,19.8781,VALID,20,VALID,0.805954,
2001-06-15, 01:17:00,VALID,918.524,VALID,0,VALID,96.9993,VALID,0.0169808,VALID,19.8749,VALID,18,VALID,0.600535,
2001-06-15, 01:18:00,VALID,918.52,VALID,0,VALID,97.0107,VALID,0.0169808,VALID,19.8722,VALID,16,VALID,0.515008,
2001-06-15, 01:19:00,VALID,918.527,VALID,0,VALID,96.9433,VALID,0,VALID,19.8587,VALID,17,VALID,0.468559,
2001-06-15, 01:20:00,VALID,918.537,VALID,0,VALID,96.8708,VALID,0.0169808,VALID,19.813,VALID,16,VALID,0.736225,
2001-06-15, 01:21:00,VALID,918.55,VALID,0,VALID,97.0171,VALID,0,VALID,19.8135,VALID,18,VALID,0.891036,
2001-06-15, 01:22:00,VALID,918.545,VALID,0,VALID,97.1341,VALID,0.0169808,VALID,19.82,VALID,18,VALID,0.715278,
2001-06-15, 01:23:00,VALID,918.543,VALID,0,VALID,97.176,VALID,0,VALID,19.8267,VALID,17,VALID,0.790541,
2001-06-15, 01:24:00,VALID,918.563,VALID,0,VALID,97.115,VALID,0,VALID,19.8197,VALID,18,VALID,0.581027,
2001-06-15, 01:25:00,VALID,918.555,VALID,0,VALID,97.0323,VALID,0,VALID,19.7939,VALID,21,VALID,0.561266,
2001-06-15, 01:26:00,VALID,918.557,VALID,0,VALID,96.9471,VALID,-0.0849042,VALID,19.7889,VALID,24,VALID,0.287373,
2001-06-15, 01:27:00,VALID,918.546,VALID,0,VALID,96.9446,VALID,-0.101885,VALID,19.7897,VALID,23,VALID,0.391036,
2001-06-15, 01:28:00,VALID,918.549,VALID,0,VALID,96.8746,VALID,-0.101885,VALID,19.783,VALID,16,VALID,0.571579,
2001-06-15, 01:29:00,VALID,918.546,VALID,0,VALID,96.834,VALID,-0.0679233,VALID,19.7633,VALID,17,VALID,0.728516,
2001-06-15, 01:30:00,VALID,918.529,VALID,0,VALID,96.778,VALID,-0.101885,VALID,19.7539,VALID,12,VALID,0.778988,
2001-06-15, 01:31:00,VALID,918.514,VALID,0,VALID,96.6725,VALID,-0.0509425,VALID,19.7308,VALID,7,VALID,0.91645,
2001-06-15, 01:32:00,VALID,918.489,VALID,0,VALID,96.6051,VALID,-0.0509425,VALID,19.7049,VALID,5,VALID,1.18813,
2001-06-15, 01:33:00,VALID,918.482,VALID,0,VALID,96.558,VALID,-0.0679233,VALID,19.7149,VALID,8,VALID,1.22403,
2001-06-15, 01:34:00,VALID,918.47,VALID,0,VALID,96.4766,VALID,-0.0339617,VALID,19.7146,VALID,9,VALID,1.22656,
2001-06-15, 01:35:00,VALID,918.453,VALID,0,VALID,96.427,VALID,-0.0339617,VALID,19.7206,VALID,4,VALID,1.04531,
2001-06-15, 01:36:00,VALID,918.44,VALID,0,VALID,96.3533,VALID,-0.0509425,VALID,19.7146,VALID,15,VALID,1.07853,
2001-06-15, 01:37:00,VALID,918.44,VALID,0,VALID,96.3126,VALID,-0.0849042,VALID,19.7184,VALID,14,VALID,1.19202,
2001-06-15, 01:38:00,VALID,918.446,VALID,0,VALID,96.2732,VALID,-0.0679233,VALID,19.7047,VALID,11,VALID,1.13528,
2001-06-15, 01:39:00,VALID,918.431,VALID,0,VALID,96.0507,VALID,-0.101885,VALID,19.7082,VALID,359,VALID,1.11602,
2001-06-15, 01:40:00,VALID,918.426,VALID,0,VALID,95.9375,VALID,-0.0849042,VALID,19.6953,VALID,5,VALID,0.675164,
2001-06-15, 01:41:00,VALID,918.43,VALID,0,VALID,95.8014,VALID,0,VALID,19.6977,VALID,325,VALID,0.732936,
2001-06-15, 01:42:00,VALID,918.413,VALID,0,VALID,95.2991,VALID,0.0169808,VALID,19.6876,VALID,321,VALID,0.714949,
2001-06-15, 01:43:00,VALID,918.399,VALID,0,VALID,95.4861,VALID,0,VALID,19.7139,VALID,344,VALID,0.421441,
2001-06-15, 01:44:00,VALID,918.377,VALID,0,VALID,95.4772,VALID,0.0169808,VALID,19.733,VALID,355,VALID,0.250434,
2001-06-15, 01:45:00,VALID,918.373,VALID,0,VALID,95.2394,VALID,0.0169808,VALID,19.7199,VALID,352,VALID,0.499047,
2001-06-15, 01:46:00,VALID,918.35,VALID,0,VALID,95.1771,VALID,0.0169808,VALID,19.7427,VALID,9,VALID,0.793708,
2001-06-15, 01:47:00,VALID,918.341,VALID,0,VALID,95.2635,VALID,0.0169808,VALID,19.7494,VALID,18,VALID,0.251234,
2001-06-15, 01:48:00,VALID,918.32,VALID,0,VALID,95.1326,VALID,0.0509425,VALID,19.7395,VALID,324,VALID,0,
2001-06-15, 01:49:00,VALID,918.307,VALID,0,VALID,95.2317,VALID,0,VALID,19.7266,VALID,313,VALID,0,
2001-06-15, 01:50:00,VALID,918.282,VALID,0,VALID,95.4543,VALID,0,VALID,19.7395,VALID,343,VALID,0,
2001-06-15, 01:51:00,VALID,918.267,VALID,0,VALID,95.5433,VALID,0.0169808,VALID,19.7462,VALID,5,VALID,0,
2001-06-15, 01:52:00,VALID,918.256,VALID,0,VALID,95.6005,VALID,0.0169808,VALID,19.7298,VALID,353,VALID,0,
2001-06-15, 01:53:00,VALID,918.251,VALID,0,VALID,95.7874,VALID,0.0169808,VALID,19.7457,VALID,10,VALID,0,
2001-06-15, 01:54:00,VALID,918.248,VALID,0,VALID,95.8447,VALID,0.0339617,VALID,19.7295,VALID,315,VALID,0,
2001-06-15, 01:55:00,VALID,918.257,VALID,0,VALID,95.8485,VALID,0,VALID,19.7333,VALID,7,VALID,0,
2001-06-15, 01:56:00,VALID,918.27,VALID,0,VALID,95.631,VALID,-0.0169808,VALID,19.7102,VALID,15,VALID,0,
2001-06-15, 01:57:00,VALID,918.274,VALID,0,VALID,95.467,VALID,0,VALID,19.701,VALID,15,VALID,0,
2001-06-15, 01:58:00,VALID,918.278,VALID,0,VALID,95.3551,VALID,0,VALID,19.7236,VALID,311,VALID,0,
2001-06-15, 01:59:00,VALID,918.284,VALID,0,VALID,95.6781,VALID,0,VALID,19.7492,VALID,250,VALID,0,
2001-06-15, 02:00:00,VALID,918.273,VALID,0,VALID,95.2991,VALID,0,VALID,19.7392,VALID,306,VALID,0,
2001-06-15, 02:01:00,VALID,918.262,VALID,0,VALID,94.821,VALID,0,VALID,19.7166,VALID,23,VALID,0,
2001-06-15, 02:02:00,VALID,918.268,VALID,0,VALID,94.9291,VALID,0,VALID,19.7492,VALID,23,VALID,0,
2001-06-15, 02:03:00,VALID,918.253,VALID,0,VALID,94.835,VALID,-0.0169808,VALID,19.7556,VALID,5,VALID,0,
2001-06-15, 02:04:00,VALID,918.251,VALID,0,VALID,94.7104,VALID,0,VALID,19.7658,VALID,338,VALID,0,
2001-06-15, 02:05:00,VALID,918.235,VALID,0,VALID,94.7651,VALID,0,VALID,19.7723,VALID,337,VALID,0,
2001-06-15, 02:06:00,VALID,918.239,VALID,0,VALID,94.2653,VALID,0.0169808,VALID,19.7298,VALID,337,VALID,0,
2001-06-15, 02:07:00,VALID,918.23,VALID,0,VALID,94.1852,VALID,0,VALID,19.7199,VALID,337,VALID,0,
2001-06-15, 02:08:00,VALID,918.224,VALID,0,VALID,94.1458,VALID,0,VALID,19.7328,VALID,337,VALID,0,
2001-06-15, 02:09:00,VALID,918.22,VALID,0,VALID,94.2017,VALID,0,VALID,19.7586,VALID,337,VALID,0,
2001-06-15, 02:10:00,VALID,918.207,VALID,0,VALID,94.3798,VALID,0,VALID,19.7651,VALID,337,VALID,0,
2001-06-15, 02:11:00,VALID,918.223,VALID,0,VALID,94.5654,VALID,0.0169808,VALID,19.8013,VALID,317,VALID,0,
2001-06-15, 02:12:00,VALID,918.217,VALID,0,VALID,94.6748,VALID,0,VALID,19.7758,VALID,306,VALID,0,
2001-06-15, 02:13:00,VALID,918.198,VALID,0,VALID,94.8744,VALID,-0.0339617,VALID,19.7559,VALID,306,VALID,0,
2001-06-15, 02:14:00,VALID,918.186,VALID,0,VALID,95.0448,VALID,0,VALID,19.7658,VALID,305,VALID,0,
2001-06-15, 02:15:00,VALID,918.177,VALID,0,VALID,95.1326,VALID,0,VALID,19.7527,VALID,304,VALID,0,
2001-06-15, 02:16:00,VALID,918.185,VALID,0,VALID,95.2063,VALID,0,VALID,19.7626,VALID,304,VALID,0,
2001-06-15, 02:17:00,VALID,918.185,VALID,0,VALID,95.2381,VALID,0,VALID,19.7591,VALID,304,VALID,0,
2001-06-15, 02:18:00,VALID,918.194,VALID,0,VALID,95.2928,VALID,0.0169808,VALID,19.7494,VALID,304,VALID,0,
2001-06-15, 02:19:00,VALID,918.207,VALID,0,VALID,95.3297,VALID,0,VALID,19.73,VALID,304,VALID,0,
2001-06-15, 02:20:00,VALID,918.215,VALID,0,VALID,95.336,VALID,0,VALID,19.7204,VALID,304,VALID,0,
2001-06-15, 02:21:00,VALID,918.224,VALID,0,VALID,95.3207,VALID,0,VALID,19.7042,VALID,304,VALID,0,
2001-06-15, 02:22:00,VALID,918.23,VALID,0,VALID,95.3284,VALID,0.0169808,VALID,19.6883,VALID,304,VALID,0,
2001-06-15, 02:23:00,VALID,918.216,VALID,0,VALID,95.3246,VALID,0.0169808,VALID,19.6749,VALID,304,VALID,0,
2001-06-15, 02:24:00,VALID,918.194,VALID,0,VALID,95.3869,VALID,0.0169808,VALID,19.652,VALID,304,VALID,0,
2001-06-15, 02:25:00,VALID,918.174,VALID,0,VALID,95.4212,VALID,0.0169808,VALID,19.6458,VALID,304,VALID,0,
2001-06-15, 02:26:00,VALID,918.16,VALID,0,VALID,95.4314,VALID,-0.0169808,VALID,19.6361,VALID,304,VALID,0,
2001-06-15, 02:27:00,VALID,918.16,VALID,0,VALID,95.467,VALID,-0.0169808,VALID,19.6334,VALID,304,VALID,0,
2001-06-15, 02:28:00,VALID,918.171,VALID,0,VALID,95.4835,VALID,0,VALID,19.5976,VALID,304,VALID,0,
2001-06-15, 02:29:00,VALID,918.169,VALID,0,VALID,95.6221,VALID,0.0339617,VALID,19.5912,VALID,305,VALID,0,
2001-06-15, 02:30:00,VALID,918.158,VALID,0,VALID,95.72,VALID,0,VALID,19.5847,VALID,307,VALID,0,
2001-06-15, 02:31:00,VALID,918.132,VALID,0,VALID,95.7302,VALID,0,VALID,19.5651,VALID,316,VALID,0,
2001-06-15, 02:32:00,VALID,918.112,VALID,0,VALID,95.706,VALID,0,VALID,19.5685,VALID,323,VALID,0,
2001-06-15, 02:33:00,VALID,918.09,VALID,0,VALID,95.6145,VALID,0.0169808,VALID,19.5499,VALID,323,VALID,0,
2001-06-15, 02:34:00,VALID,918.071,VALID,0,VALID,95.6488,VALID,0,VALID,19.5268,VALID,323,VALID,0,
2001-06-15, 02:35:00,VALID,918.06,VALID,0,VALID,95.7531,VALID,0,VALID,19.5072,VALID,323,VALID,0,
2001-06-15, 02:36:00,VALID,918.047,VALID,0,VALID,95.879,VALID,-0.0169808,VALID,19.5012,VALID,323,VALID,0,
2001-06-15, 02:37:00,VALID,918.012,VALID,0,VALID,95.8523,VALID,0,VALID,19.4754,VALID,323,VALID,0,
2001-06-15, 02:38:00,VALID,918.014,VALID,0,VALID,95.8892,VALID,0,VALID,19.453,VALID,327,VALID,0,
2001-06-15, 02:39:00,VALID,918.001,VALID,0,VALID,96.0239,VALID,0,VALID,19.42,VALID,347,VALID,0,
2001-06-15, 02:40:00,VALID,918.014,VALID,0,VALID,96.0481,VALID,0,VALID,19.414,VALID,359,VALID,0,
2001-06-15, 02:41:00,VALID,918.002,VALID,0,VALID,96.0697,VALID,-0.0169808,VALID,19.3882,VALID,17,VALID,0,
2001-06-15, 02:42:00,VALID,918.005,VALID,0,VALID,96.1969,VALID,-0.0169808,VALID,19.3817,VALID,17,VALID,0,
2001-06-15, 02:43:00,VALID,918.006,VALID,0,VALID,96.2986,VALID,-0.0339617,VALID,19.3621,VALID,17,VALID,0,
2001-06-15, 02:44:00,VALID,918.007,VALID,0,VALID,96.2439,VALID,-0.0339617,VALID,19.3429,VALID,22,VALID,0,
2001-06-15, 02:45:00,VALID,917.995,VALID,0,VALID,96.3342,VALID,-0.0169808,VALID,19.3102,VALID,24,VALID,0,
2001-06-15, 02:46:00,VALID,917.986,VALID,0,VALID,96.4118,VALID,0,VALID,19.291,VALID,26,VALID,0,
2001-06-15, 02:47:00,VALID,917.964,VALID,0,VALID,96.5504,VALID,-0.0849042,VALID,19.2754,VALID,31,VALID,0,
2001-06-15, 02:48:00,VALID,917.947,VALID,0,VALID,96.6598,VALID,-0.0509425,VALID,19.2729,VALID,31,VALID,0,
2001-06-15, 02:49:00,VALID,917.923,VALID,0,VALID,96.7551,VALID,-0.0849042,VALID,19.2754,VALID,32,VALID,0,
2001-06-15, 02:50:00,VALID,917.91,VALID,0,VALID,96.8174,VALID,-0.0339617,VALID,19.2652,VALID,32,VALID,0,
2001-06-15, 02:51:00,VALID,917.9,VALID,0,VALID,96.7551,VALID,-0.0339617,VALID,19.2654,VALID,33,VALID,0,
2001-06-15, 02:52:00,VALID,917.895,VALID,0,VALID,96.6915,VALID,-0.0509425,VALID,19.2627,VALID,36,VALID,0,
2001-06-15, 02:53:00,VALID,917.888,VALID,0,VALID,96.7271,VALID,0,VALID,19.2523,VALID,35,VALID,0,
2001-06-15, 02:54:00,VALID,917.9,VALID,0,VALID,96.7577,VALID,-0.0169808,VALID,19.2555,VALID,35,VALID,0,
2001-06-15, 02:55:00,VALID,917.915,VALID,0,VALID,96.8212,VALID,-0.0169808,VALID,19.2587,VALID,35,VALID,0,
2001-06-15, 02:56:00,VALID,917.913,VALID,0,VALID,96.8874,VALID,0,VALID,19.2786,VALID,27,VALID,0,
2001-06-15, 02:57:00,VALID,917.914,VALID,0,VALID,97.0578,VALID,-0.0339617,VALID,19.2883,VALID,4,VALID,0,
2001-06-15, 02:58:00,VALID,917.901,VALID,0,VALID,97.2498,VALID,-0.0509425,VALID,19.3268,VALID,1,VALID,0,
2001-06-15, 02:59:00,VALID,917.888,VALID,0,VALID,97.3464,VALID,0,VALID,19.369,VALID,1,VALID,0,
2001-06-15, 03:00:00,VALID,917.876,VALID,0,VALID,97.3566,VALID,-0.0339617,VALID,19.3981,VALID,1,VALID,0,
2001-06-15, 03:01:00,VALID,917.849,VALID,0,VALID,97.2358,VALID,-0.0169808,VALID,19.4108,VALID,1,VALID,0,
2001-06-15, 03:02:00,VALID,917.843,VALID,0,VALID,96.937,VALID,-0.0509425,VALID,19.3879,VALID,5,VALID,0,
2001-06-15, 03:03:00,VALID,917.835,VALID,0,VALID,96.6394,VALID,0,VALID,19.376,VALID,4,VALID,0,
2001-06-15, 03:04:00,VALID,917.837,VALID,0,VALID,96.6725,VALID,0,VALID,19.3782,VALID,329,VALID,0,
2001-06-15, 03:05:00,VALID,917.827,VALID,0,VALID,96.6636,VALID,0,VALID,19.3916,VALID,328,VALID,0,
2001-06-15, 03:06:00,VALID,917.819,VALID,0,VALID,96.6445,VALID,-0.0169808,VALID,19.3981,VALID,328,VALID,0,
2001-06-15, 03:07:00,VALID,917.799,VALID,0,VALID,96.6636,VALID,-0.0679233,VALID,19.4145,VALID,328,VALID,0,
2001-06-15, 03:08:00,VALID,917.777,VALID,0,VALID,96.6407,VALID,-0.0339617,VALID,19.447,VALID,335,VALID,0,
2001-06-15, 03:09:00,VALID,917.744,VALID,0,VALID,96.4385,VALID,0,VALID,19.4465,VALID,344,VALID,0,
2001-06-15, 03:10:00,VALID,917.731,VALID,0,VALID,96.2096,VALID,0,VALID,19.4274,VALID,5,VALID,0,
2001-06-15, 03:11:00,VALID,917.707,VALID,0,VALID,96.1117,VALID,-0.0169808,VALID,19.3879,VALID,5,VALID,0,
2001-06-15, 03:12:00,VALID,917.683,VALID,0,VALID,96.3304,VALID,-0.0509425,VALID,19.3951,VALID,7,VALID,0,
2001-06-15, 03:13:00,VALID,917.668,VALID,0,VALID,96.5402,VALID,-0.0679233,VALID,19.4113,VALID,12,VALID,0,
2001-06-15, 03:14:00,VALID,917.655,VALID,0,VALID,96.7742,VALID,-0.0339617,VALID,19.4431,VALID,7,VALID,0,
2001-06-15, 03:15:00,VALID,917.642,VALID,0,VALID,96.8098,VALID,0,VALID,19.4694,VALID,16,VALID,0,
2001-06-15, 03:16:00,VALID,917.615,VALID,0,VALID,96.7831,VALID,-0.0169808,VALID,19.4622,VALID,16,VALID,0,
2001-06-15, 03:17:00,VALID,917.6,VALID,0,VALID,96.8301,VALID,-0.0339617,VALID,19.4759,VALID,16,VALID,0,
2001-06-15, 03:18:00,VALID,917.565,VALID,0,VALID,96.9777,VALID,-0.0509425,VALID,19.4957,VALID,16,VALID,0,
2001-06-15, 03:19:00,VALID,917.548,VALID,0,VALID,96.942,VALID,-0.0169808,VALID,19.4654,VALID,13,VALID,0,
2001-06-15, 03:20:00,VALID,917.538,VALID,0,VALID,96.9255,VALID,-0.0339617,VALID,19.4823,VALID,13,VALID,0,
2001-06-15, 03:21:00,VALID,917.53,VALID,0,VALID,96.937,VALID,-0.0339617,VALID,19.4555,VALID,13,VALID,0,
2001-06-15, 03:22:00,VALID,917.53,VALID,0,VALID,96.9688,VALID,-0.0169808,VALID,19.4587,VALID,13,VALID,0,
2001-06-15, 03:23:00,VALID,917.53,VALID,0,VALID,97.0133,VALID,0,VALID,19.4565,VALID,13,VALID,0,
2001-06-15, 03:24:00,VALID,917.527,VALID,0,VALID,97.0552,VALID,0,VALID,19.4468,VALID,13,VALID,0,
2001-06-15, 03:25:00,VALID,917.534,VALID,0,VALID,97.1086,VALID,-0.0169808,VALID,19.4468,VALID,13,VALID,0,
2001-06-15, 03:26:00,VALID,917.541,VALID,0,VALID,97.1519,VALID,-0.0169808,VALID,19.4431,VALID,13,VALID,0,
2001-06-15, 03:27:00,VALID,917.535,VALID,0,VALID,97.2027,VALID,-0.0509425,VALID,19.4694,VALID,13,VALID,0,
2001-06-15, 03:28:00,VALID,917.544,VALID,0,VALID,97.2154,VALID,-0.0169808,VALID,19.459,VALID,12,VALID,0,
2001-06-15, 03:29:00,VALID,917.552,VALID,0,VALID,97.2421,VALID,-0.0169808,VALID,19.4565,VALID,12,VALID,0,
2001-06-15, 03:30:00,VALID,917.574,VALID,0,VALID,97.2879,VALID,-0.0509425,VALID,19.453,VALID,12,VALID,0,
2001-06-15, 03:31:00,VALID,917.589,VALID,0,VALID,97.3477,VALID,-0.101885,VALID,19.4662,VALID,12,VALID,0,
2001-06-15, 03:32:00,VALID,917.597,VALID,0,VALID,97.3693,VALID,-0.0509425,VALID,19.4826,VALID,12,VALID,0,
2001-06-15, 03:33:00,VALID,917.591,VALID,0,VALID,97.3591,VALID,-0.0339617,VALID,19.4823,VALID,12,VALID,0,
2001-06-15, 03:34:00,VALID,917.581,VALID,0,VALID,97.3553,VALID,-0.0509425,VALID,19.4955,VALID,12,VALID,0,
2001-06-15, 03:35:00,VALID,917.573,VALID,0,VALID,97.3515,VALID,0,VALID,19.4982,VALID,12,VALID,0,
2001-06-15, 03:36:00,VALID,917.552,VALID,0,VALID,97.3477,VALID,-0.0509425,VALID,19.5047,VALID,13,VALID,0,
2001-06-15, 03:37:00,VALID,917.538,VALID,0,VALID,97.3922,VALID,-0.0339617,VALID,19.5139,VALID,13,VALID,0,
2001-06-15, 03:38:00,VALID,917.51,VALID,0,VALID,97.3833,VALID,-0.0509425,VALID,19.5434,VALID,13,VALID,0,
2001-06-15, 03:39:00,VALID,917.483,VALID,0,VALID,97.3197,VALID,-0.0169808,VALID,19.5601,VALID,14,VALID,0,
2001-06-15, 03:40:00,VALID,917.468,VALID,0,VALID,97.265,VALID,-0.0509425,VALID,19.5497,VALID,14,VALID,0,
2001-06-15, 03:41:00,VALID,917.451,VALID,0,VALID,97.246,VALID,-0.0169808,VALID,19.5596,VALID,14,VALID,0,
2001-06-15, 03:42:00,VALID,917.441,VALID,0,VALID,97.2498,VALID,-0.0169808,VALID,19.569,VALID,14,VALID,0,
2001-06-15, 03:43:00,VALID,917.444,VALID,0,VALID,97.2599,VALID,0,VALID,19.5824,VALID,13,VALID,0,